This is the latest recevied weather packets stored in our database for station/object N1KM-15. If no packets are shown the sender has not sent any weather packets the latest 10 day(s).
| Time | Temp. | Humidity | Pressure | Rain* | Wind** | Luminosity | Snow |
|---|---|---|---|---|---|---|---|
| 1777521600 | 7.78° C | 92% | 1009.2 hPa | 0 mm | - | - | - |
| 1777520700 | 7.78° C | 92% | 1009.3 hPa | 0 mm | - | - | - |
| 1777519800 | 7.78° C | 92% | 1009.2 hPa | 0 mm | - | - | - |
| 1777518900 | 7.78° C | 91% | 1009.4 hPa | 0 mm | - | - | - |
| 1777518000 | 7.78° C | 91% | 1009.6 hPa | 0 mm | - | - | - |
| 1777517100 | 7.78° C | 90% | 1009.8 hPa | 0 mm | - | - | - |
| 1777516200 | 8.33° C | 90% | 1010 hPa | 0 mm | - | - | - |
| 1777515300 | 8.33° C | 90% | 1010.1 hPa | 0 mm | - | - | - |
| 1777514400 | 8.33° C | 89% | 1009.9 hPa | 0 mm | - | - | - |
| 1777513500 | 8.33° C | 89% | 1010.4 hPa | 0 mm | - | - | - |
| 1777512600 | 8.33° C | 88% | 1010.7 hPa | 0 mm | - | - | - |
| 1777511700 | 8.33° C | 88% | 1010.6 hPa | 0 mm | - | - | - |
| 1777510800 | 8.33° C | 87% | 1010.5 hPa | 0 mm | - | - | - |
| 1777509900 | 8.89° C | 86% | 1010.4 hPa | 0 mm | - | - | - |
| 1777509000 | 8.89° C | 86% | 1010.6 hPa | 0 mm | - | - | - |
| 1777508100 | 8.89° C | 84% | 1010.5 hPa | 0 mm | - | - | - |
| 1777507200 | 9.44° C | 82% | 1010.3 hPa | 0 mm | - | - | - |
| 1777506300 | 10° C | 81% | 1010.5 hPa | 0 mm | - | - | - |
| 1777505400 | 10.56° C | 78% | 1010.5 hPa | 0 mm | - | - | - |
| 1777504500 | 11.11° C | 76% | 1010.3 hPa | 0 mm | - | - | - |
| 1777503600 | 11.67° C | 75% | 1010.3 hPa | 0 mm | - | - | - |
| 1777502700 | 12.22° C | 74% | 1010.3 hPa | 0 mm | - | - | - |
| 1777501800 | 12.78° C | 72% | 1010.6 hPa | 0 mm | - | - | - |
| 1777500900 | 13.33° C | 71% | 1010.1 hPa | 0 mm | - | - | - |
| 1777500000 | 13.89° C | 70% | 1010.2 hPa | 0 mm | - | - | - |
* Rain since midnight (hover to see other rain measurements)
** Current wind speed in m/s (hover to see current wind gust speed)